Dewpoint
46 46 47 47 48 47 48 48 49 51 51 51 51 51 51 50 50 51 52 52 52 50 51 50 49 51 45 28 9 31 55 57 46 41 29 29 27 23 20 18 19 22 14 16 19 19 20
47 46 47 47 48 47 48 48 48 50 50 51 52 52 51 51 51 50 51 52 52 51 51 50 49 50 41 28 11 30 36 39 36 38 32 28 24 25 22 20 19 18 18 16 15 19 22
49 48 46 47 47 47 46 48 48 49 50 50 51 52 52 51 51 51 52 52 51 51 51 50 49 45 41 27 18 31 34 29 36 29 32 29 28 25 22 22 23 20 19 16 18 19 18
46 49 49 47 48 49 49 48 47 48 49 49 50 52 52 52 52 52 52 52 51 51 51 51 50 44 34 29 34 34 29 21 32 35 33 29 29 28 27 25 23 20 20 16 14 16 24
47 46 46 47 47 47 48 47 47 47 48 49 50 52 52 52 52 52 52 51 51 50 51 50 46 42 27 37 34 30 29 22 17 24 27 33 34 29 29 24 19 22 15 18 16 19 22
45 45 46 46 46 45 46 46 46 47 47 50 50 51 51 51 51 51 51 51 48 48 47 45 42 38 30 15 30 38 41 35 27 22 31 34 32 30 29 23 18 18 17 16 16 16 24
45 46 47 46 45 44 45 45 45 47 48 48 49 50 51 51 51 51 47 39 33 36 35 33 30 32 26 34 37 33 42 40 32 24 25 33 28 27 26 26 23 19 16 15 13 17 21
44 45 45 46 46 43 43 44 44 46 47 48 48 50 51 51 51 51 42 38 38 37 34 34 33 31 30 31 31 30 38 30 33 21 18 30 28 26 27 27 25 22 18 17 16 20 21
44 44 44 44 46 45 42 45 44 45 47 47 48 49 50 51 51 45 41 39 41 41 35 30 33 33 33 34 28 24 37 29 29 27 19 21 22 25 25 27 24 23 20 19 16 16 19
43 44 45 45 45 44 42 44 42 43 45 47 49 50 50 50 46 41 39 41 42 44 32 18 28 30 34 31 28 27 27 30 26 22 24 22 19 22 25 25 24 21 21 21 20 19 14
43 43 44 45 45 44 45 44 43 44 45 46 49 49 49 49 45 39 40 43 42 44 7 11 22 30 29 27 21 30 27 20 18 22 27 23 22 18 18 22 20 20 21 22 22 21 21
43 43 42 42 44 45 45 45 44 44 44 45 47 48 48 43 46 43 44 43 42 32 4 10 22 24 29 26 23 30 27 22 20 17 21 24 27 25 18 23 25 24 24 23 24 22 20
42 42 42 43 43 43 45 43 43 44 44 45 46 47 45 43 41 44 45 38 29 14 16 13 20 20 20 19 25 23 28 24 16 18 20 21 22 25 26 21 23 23 22 22 22 23 20
41 40 41 41 41 43 45 43 44 44 43 44 46 47 44 42 47 45 43 33 21 11 18 22 22 21 19 20 24 23 25 23 19 16 14 19 20 22 26 25 23 22 23 22 18 22 20
39 39 39 41 41 41 43 43 44 43 44 44 46 43 44 43 47 47 38 28 13 17 20 25 20 16 17 19 22 23 30 30 20 20 13 17 16 23 23 26 25 25 24 24 23 26 26
40 41 40 41 42 42 42 43 43 42 42 44 43 42 37 44 50 44 35 24 20 28 27 27 20 22 18 19 17 24 28 30 33 30 23 24 17 19 21 25 26 26 26 25 26 22 20
38 38 39 39 40 41 43 42 43 41 42 43 42 36 36 45 49 39 28 27 22 22 25 26 25 24 23 21 18 18 29 28 26 32 31 24 26 27 25 23 23 25 27 26 25 25 22
39 40 40 39 39 40 42 42 41 41 42 41 38 31 43 49 36 36 31 28 29 22 24 26 28 27 25 23 21 17 20 25 26 27 31 35 30 24 24 25 24 25 25 26 25 23 25
40 40 39 40 40 40 42 42 41 42 42 39 34 33 43 45 30 31 34 30 26 23 22 23 24 28 27 24 20 20 23 28 28 24 28 33 31 20 17 22 28 24 28 28 28 29 27
39 39 40 39 40 40 42 42 41 42 43 43 36 30 34 39 37 31 28 28 31 26 24 26 25 29 27 25 25 22 22 22 27 24 39 37 30 31 24 26 30 31 30 31 30 28 25
40 40 41 40 39 40 41 42 41 43 43 42 37 31 30 31 31 35 28 27 25 24 26 26 25 26 25 24 24 24 23 24 24 32 32 38 27 27 27 25 26 26 25 25 25 26 26
42 42 42 41 42 40 40 41 42 43 43 40 33 30 33 31 29 35 35 31 26 23 25 24 25 25 27 26 25 22 23 24 24 25 28 32 26 31 24 24 24 25 23 24 23 23 26
44 44 44 43 42 41 41 42 42 43 43 38 39 36 34 29 26 28 29 28 33 28 27 25 26 26 28 27 29 29 30 30 28 27 27 27 30 27 22 27 26 24 25 22 22 21 26
44 45 45 45 45 42 42 42 42 43 43 41 39 37 33 25 27 26 22 28 31 29 28 27 27 28 30 34 34 34 32 31 31 30 29 27 30 31 27 29 20 19 23 24 25 23 23
45 45 44 44 44 44 42 42 42 43 43 43 41 39 34 28 25 23 25 34 32 31 31 29 28 29 36 35 32 27 28 29 29 30 30 30 28 29 25 21 19 18 18 19 18 16 28
44 44 44 44 44 44 43 43 43 43 44 42 41 43 38 33 29 23 23 27 32 31 30 31 38 36 38 36 30 23 21 21 22 27 29 30 30 29 28 21 20 21 28 33 30 20 29
45 45 45 45 44 44 44 44 44 44 45 43 42 43 38 33 32 36 28 26 34 36 32 33 37 37 39 35 29 25 22 22 20 23 30 29 30 29 27 27 24 25 23 36 25 29 31
44 45 45 45 45 45 45 44 45 45 45 45 41 43 38 34 33 32 35 31 31 34 29 36 35 35 34 32 29 25 26 24 21 23 28 28 26 28 29 25 24 29 32 29 35 34 33
45 45 45 45 45 44 44 45 44 44 45 45 40 44 42 39 37 38 36 36 36 35 36 38 33 35 34 32 30 29 28 30 22 20 25 27 28 27 26 26 32 35 34 33 39 38 38
Lifted_Index
14 14 14 13 13 13 13 13 13 13 13 13 13 13 13 13 13 13 13 13 13 13 13 14 13 12 11 9 9 10 9 6 6 6 7 7 7 7 7 7 7 7 6 6 6 6 6
13 13 13 13 13 13 13 13 13 13 12 12 12 12 12 12 12 12 12 12 12 13 13 13 13 12 10 9 9 10 9 8 7 6 6 6 6 6 7 7 7 7 6 6 6 6 6
12 12 12 12 12 12 12 12 12 12 12 12 11 11 11 11 11 11 11 11 12 12 12 12 12 12 10 9 9 10 10 9 8 7 6 6 6 6 6 6 7 6 6 6 6 6 6
11 11 11 12 12 12 12 12 12 12 12 11 11 10 10 10 10 10 10 11 11 11 11 11 11 11 10 10 9 10 10 10 9 8 8 7 7 6 6 6 6 6 5 4 5 6 6
11 11 11 11 11 11 11 11 12 11 11 11 10 9 9 9 9 9 10 10 11 11 10 10 10 10 10 10 9 9 9 9 10 9 8 7 6 6 6 5 5 4 3 3 4 5 6
11 11 10 10 11 11 11 11 11 11 11 10 9 9 9 9 9 9 9 10 10 10 9 9 9 9 9 8 8 8 8 8 9 9 8 6 5 5 5 4 3 3 3 3 4 5 6
10 10 10 9 10 10 11 10 11 10 10 9 9 9 8 8 8 9 9 9 9 9 9 8 8 8 8 8 7 7 7 7 7 8 7 5 4 4 4 4 3 3 3 3 4 5 5
10 10 10 9 9 10 10 10 10 10 10 9 9 8 8 8 8 9 9 9 9 9 8 7 7 8 7 7 7 7 7 7 7 7 6 5 4 4 4 4 4 3 3 3 4 5 5
10 10 10 9 9 9 10 10 10 10 9 9 9 8 8 8 8 9 9 9 9 9 8 7 7 7 7 7 7 7 7 7 7 6 6 5 5 5 5 5 4 3 3 3 3 4 4
10 10 9 9 9 9 10 10 10 10 10 9 9 8 8 8 8 8 9 9 9 8 6 6 6 6 6 6 6 7 7 7 7 7 6 6 6 5 5 5 4 3 3 4 4 4 4
10 9 9 9 9 9 9 10 10 10 10 9 9 9 9 9 8 8 8 9 8 6 4 5 6 6 6 5 5 5 6 7 7 7 6 6 6 5 5 5 4 4 4 4 4 4 3
9 9 9 9 9 9 9 10 10 10 10 10 9 9 9 9 8 8 8 8 7 5 4 5 6 6 5 5 4 4 5 6 7 6 6 6 6 5 5 5 5 4 4 4 3 3 3
9 9 9 9 9 9 9 10 10 10 10 10 9 9 9 9 8 8 8 8 6 5 5 6 6 6 5 4 4 4 4 5 6 5 5 5 5 5 5 5 5 4 4 2 2 1 2
9 10 10 10 10 9 9 9 10 10 10 10 10 9 9 9 8 8 8 7 6 6 6 6 6 6 5 4 3 3 3 4 5 5 4 4 4 4 5 5 4 4 3 2 1 1 1
9 10 10 9 10 9 9 9 9 9 10 10 9 9 9 8 7 8 8 7 6 7 6 6 6 5 5 3 3 2 2 2 3 4 4 3 3 4 4 4 4 3 3 2 2 2 1
9 9 9 9 9 9 9 9 9 9 9 9 9 9 8 7 7 7 8 7 7 6 6 5 5 5 4 3 2 2 2 2 2 3 3 3 3 3 3 3 3 3 2 2 2 2 1
9 9 9 9 9 9 9 9 9 9 9 9 9 8 7 6 6 7 7 7 7 6 5 5 5 4 4 4 3 2 2 2 2 2 2 2 2 2 2 2 2 2 2 2 2 2 1
8 8 8 9 9 9 8 8 8 8 8 9 9 8 6 5 6 6 7 7 7 6 5 5 5 5 4 4 4 4 3 3 4 3 2 2 1 1 1 2 2 1 1 1 2 2 2
7 7 8 8 8 8 8 8 8 8 8 8 8 7 6 5 5 5 5 5 5 5 5 4 4 4 4 4 5 5 5 5 5 4 3 2 1 1 1 1 1 2 2 2 2 2 2
6 7 8 8 8 8 8 8 8 7 7 8 8 7 6 5 4 4 3 3 3 4 4 4 4 4 4 4 4 5 5 5 5 5 4 2 1 1 1 1 1 2 2 2 2 2 2
5 6 7 7 8 8 7 7 7 7 7 7 8 7 6 4 3 2 2 1 1 2 3 3 4 4 4 4 4 5 5 6 6 5 4 2 1 1 1 1 1 2 2 2 2 2 2
5 5 6 7 7 7 7 7 7 7 7 7 8 7 5 4 3 2 1 0 0 1 1 2 3 3 3 3 4 4 5 5 6 5 4 3 2 1 1 1 2 2 2 2 2 2 2
5 5 5 6 6 7 7 7 7 7 7 7 7 6 5 4 3 2 1 1 0 0 0 1 1 2 2 3 3 4 4 5 5 5 5 4 2 2 1 1 2 2 2 1 1 1 1
4 4 5 5 6 6 7 7 7 6 6 6 6 5 5 4 3 2 1 1 0 -0 -0 0 1 1 2 2 3 3 3 4 4 4 4 4 3 2 2 2 2 3 3 2 2 1 1
4 4 4 5 5 6 6 7 6 6 6 6 5 5 5 4 3 2 2 1 0 -0 -0 0 1 1 1 2 2 2 2 3 3 3 3 3 3 2 2 2 3 3 3 2 2 2 1
4 4 5 5 5 6 6 6 6 6 6 5 5 5 5 4 3 2 2 1 0 -0 0 1 1 2 2 2 2 2 2 2 2 2 2 3 3 2 2 2 2 2 2 1 1 1 2
4 4 5 5 5 6 6 6 6 5 5 5 5 5 5 5 3 2 1 1 0 0 0 1 1 2 2 2 2 2 2 2 1 1 2 2 2 2 2 2 1 1 1 0 0 1 2
4 4 4 4 5 5 6 6 6 5 5 5 5 5 5 5 4 3 2 1 1 1 1 1 2 2 2 2 2 2 2 2 2 1 1 1 2 2 2 2 1 1 1 1 1 1 1
4 4 4 4 4 5 5 5 6 5 5 5 5 5 5 4 4 3 2 2 1 1 1 2 2 2 2 2 2 2 2 2 2 2 1 1 1 1 1 1 1 1 1 1 1 1 1